Regional Weather Roundup
Issued by NWS

Home | Current Version | Previous Version | Graphics & Text | Print | Product List | Glossary On
Versions: 1 2 3 4 5 6 7 8 9 10 11 12 13 14 15 16 17 18 19 20 21 22 23 24 25 26 27 28 29 30 31 32 33 34 35 36 37 38 39 40 41 42 43 44 45 46 47 48 49 50
000
ASUS43 KMPX 250610
RWRMN
WEATHER ROUNDUP FOR MINNESOTA
NATIONAL WEATHER SERVICE TWIN CITIES/CHANHASSEN MN
1200 AM CST SUN JAN 25 2015


NOTE: "FAIR" INDICATES FEW OR NO CLOUDS BELOW 12,000 FEET WITH NO
SIGNIFICANT WEATHER AND/OR OBSTRUCTIONS TO VISIBILITY. N/A MEANS
CURRENT SKY AND/OR WEATHER CONDITIONS ARE NOT AVAILABLE.

MNZ060>063-068>070-250700-
   Twin Cities Metro

CITY           SKY/WX    TMP DP  RH WIND       PRES   REMARKS
TWIN CITIES    CLOUDY    35  31  85 NE12      29.68R WCI  27
6HR MIN TEMP:  35; 6HR MAX TEMP:  39; 6HR PCP: TRACE;

ST PAUL        LGT RAIN  35  31  85 NE8       29.70R WCI  29
CRYSTAL        LGT SNOW  35  32  88 NE6       29.68R FOG     WCI  30
BLAINE         CLOUDY    36  36 100 N9        29.69R
LAKEVILLE      LGT RAIN  34  30  86 NE7       29.66R WCI  28
EDEN PRAIRIE   LGT RAIN  36  31  82 NE10      29.66R
6HR MIN TEMP:  35; 6HR MAX TEMP:  37; 6HR PCP: TRACE;

SOUTH ST PAUL  CLOUDY    36  32  87 NE7       29.68R
LAKE ELMO      CLOUDY    34  32  93 NE7       29.70R WCI  28
$$
MNZ001>005-007-008-013>017-022>024-027-028-250700-
   Northwest Minnesota

CITY           SKY/WX    TMP DP  RH WIND       PRES   REMARKS
BEMIDJI        CLOUDY    19  11  72 NE8       29.80R WCI   9
HALLOCK        CLOUDY    19  10  68 E7        29.91R WCI  10
ROSEAU         CLOUDY    14   7  73 NE15      29.91R WCI  -1
WARROAD        CLOUDY    12   5  73 NE14G20   29.91R WCI  -3
THIEF RVR FALL CLOUDY    18  10  73 NE8       29.86R WCI   7
CROOKSTON      CLOUDY    21  14  73 NE6       29.88R WCI  14
FOSSTON        CLOUDY    18  10  73 NE9       29.82R WCI   6
DETROIT LAKES  CLOUDY    32  28  86 NE5       29.78R WCI  27
MOORHEAD       CLOUDY    30  28  93 N14       29.82R WCI  20
PARK RAPIDS    CLOUDY    28  21  75 NE7       29.75R WCI  21
MAHNOMEN       CLOUDY    24  19  81 N13       29.80R WCI  12
$$
MNZ006-009>011-018-025>026-250700-
   North Central Minnesota

CITY           SKY/WX    TMP DP  RH WIND       PRES   REMARKS
BAUDETTE       CLOUDY    12   3  67 E9        29.89R WCI   0
FLAG ISLAND    MOCLDY     9   0  66 E7        29.92R WCI  -3
INTL FALLS     CLOUDY     7  -2  66 E13       29.91R WCI  -9
6HR MIN TEMP:   7; 6HR MAX TEMP:  15;

WASKISH        CLOUDY    14   9  79 NE9       29.86R WCI   2
BIG FORK       CLOUDY    14   7  73 NE5       29.84R WCI   6
LONGVILLE      CLOUDY    25  18  74 NE3       29.78R
GRAND RAPIDS   CLOUDY    23  16  74 E3        29.78R
CRANE LAKE     PTCLDY     3   0  85 CALM      29.92R
ORR            MOCLDY     9   1  72 CALM      29.84R
COOK           CLOUDY    10   3  72 E9        29.86R WCI  -2
WALKER         CLOUDY    22  13  68 NE6       29.78R WCI  15
$$
MNZ012-019>021-037-250700-
   Northeast Minnesota

CITY           SKY/WX    TMP DP  RH WIND       PRES   REMARKS
DULUTH         FLURRIES  21  13  71 E16G24    29.81R WCI   7
6HR MIN TEMP:  21; 6HR MAX TEMP:  27; 6HR PCP: TRACE;

ELY            PTCLDY     5   0  78 NE5       29.87R WCI  -4
HIBBING        CLOUDY    21  12  68 E6        29.81R WCI  13
EVELETH        CLOUDY    19  12  73 NE6       29.83R WCI  11
DULUTH HARBOR  CLOUDY    27  19  74 NE23      29.86R WCI  12
TWO HARBORS    FLURRIES  23  16  74 E12       29.83R WCI  12
SILVER BAY     FLURRIES  18  10  73 NE9       29.86R WCI   6
GRAND MARAIS     N/A      8  -3  61 N7        29.96R WCI  -3
G MARAIS ARPRT PTCLDY    -2  -9  71 NE5       29.85R WCI -12
$$
MNZ029>031-032-039>041-046>048-054>057-064-250700-
   West Central Minnesota

CITY           SKY/WX    TMP DP  RH WIND       PRES   REMARKS
FERGUS FALLS   CLOUDY    32  30  93 NE5       29.78R WCI  27
WHEATON        LGT SNOW  30  30 100 N10       29.78R WCI  21
MORRIS         LGT SNOW  34  32  93 N12       29.72R WCI  25
ALEXANDRIA     CLOUDY    32  30  92 NE10      29.73R WCI  24
ELBOW LAKE     FLURRIES  32  31  96 N7        29.74R WCI  25
WADENA         CLOUDY    28  25  86 NE7         N/A  WCI  21
GLENWOOD       LGT SNOW  32  30  93 NE10      29.72R WCI  24
APPLETON       LGT SNOW  34  32  93 N12       29.72R WCI  25
BENSON         LGT SNOW  34  32  93 NE7       29.72R WCI  28
ORTONVILLE     MIX PCPN  32  30  93 N13       29.73R WCI  22
MADISON        LGT SNOW  36  36 100 N14       29.71R
WILLMAR        LGT SNOW  34  32  93 NE9       29.70R WCI  26
$$
MNZ033>034-036-042>043-049>051-058-059-250700-
   Central Minnesota

CITY           SKY/WX    TMP DP  RH WIND       PRES   REMARKS
ST CLOUD       CLOUDY    32  29  88 NE10      29.71R WCI  24
6HR MIN TEMP:  32; 6HR MAX TEMP:  36; 6HR PCP:  0.01;

SAUK CENTRE    CLOUDY    32  31  96 N7        29.72R WCI  26
PAYNESVILLE    LGT SNOW  31  31 100 N6        29.71R WCI  25
AITKIN         CLOUDY    28  21  74 NE14      29.76R WCI  17
PINE RIVER     CLOUDY    28  23  80 NE7       29.80R WCI  21
BRAINERD       CLOUDY    28  23  81 NE7       29.76R WCI  21
STAPLES        CLOUDY    30  27  86 NE7       29.74R WCI  23
LONG PRAIRIE   CLOUDY    32  30  93 N8        29.73R WCI  25
LITTLE FALLS   CLOUDY    32  27  80 NE6       29.74R WCI  26
LITCHFIELD     MIX PCPN  34  34 100 NE8       29.70R WCI  27
BUFFALO        LGT RAIN  33  31  94 N7        29.70R WCI  27
MAPLE LAKE     MIX PCPN  34  33  96 NE7       29.70R WCI  28
$$
MNZ037-044-045-052-053-250700-
   East Central Minnesota

CITY           SKY/WX    TMP DP  RH WIND       PRES   REMARKS
PRINCETON      CLOUDY    32  27  80 NE8       29.73R WCI  25
MORA           CLOUDY    28  23  80 NE8G16    29.77R WCI  20
CAMBRIDGE      CLOUDY    30  21  69 NE9G17    29.72R WCI  22
RUSH CITY      CLOUDY    28  23  81 NE12      29.76R WCI  18
MOOSE LAKE     CLOUDY    25  18  74 NE12G18   29.78R WCI  14
HINCKLEY       CLOUDY    28  23  80 NE10G17   29.77R WCI  19
CLOQUET        CLOUDY    21  16  79 NE12G21   29.81R WCI   9
MCGREGOR       CLOUDY    27  21  80 E10G16    29.79R WCI  17
$$
MNZ071>073-080-081-089-090-097-098-250700-
   Southwest Minnesota

CITY           SKY/WX    TMP DP  RH WIND       PRES   REMARKS
MONTEVIDEO     LGT SNOW  32  32 100 NE12      29.71R WCI  23
GRANITE FALLS  LGT SNOW  32  32  99 N9        29.70R WCI  25
CANBY          LGT SNOW  33  32  98 N12       29.71R WCI  24
MARSHALL       CLOUDY    32  28  86 N14       29.69R WCI  22
REDWOOD FALLS  CLOUDY    35  32  88 VRB7      29.66R WCI  29
OLIVIA         LGT RAIN  32  32 100 NE12      29.67R WCI  23
PIPESTONE      LGT SNOW  32  30  93 N12G18    29.64R WCI  23
WINDOM         MIX PCPN  34  34 100 N10       29.62R WCI  26
WORTHINGTON    CLOUDY    32  28  86 N15       29.62R WCI  22
JACKSON        MIX PCPN  34  32  93 VRB8      29.61R WCI  27
TRACY          LGT SNOW  33  32  97 N14       29.65R WCI  23
SLAYTON        LGT SNOW  32  31  96 N18       29.63R WCI  20
$$
MNZ065>067-074>077-082>085-091>093-250700-
   South Central Minnesota

CITY           SKY/WX    TMP DP  RH WIND       PRES   REMARKS
MANKATO        CLOUDY    34  30  86 NE9       29.62R WCI  26
NEW ULM        CLOUDY    34  34 100 N3        29.64R
ST JAMES       CLOUDY    36  34  93 N8        29.63R
FAIRMONT       CLOUDY    34  27  75 N7        29.59S WCI  28
GLENCOE        FLURRIES  35  34  94 NE7       29.66R WCI  29
FARIBAULT      CLOUDY    34  30  86 N6        29.64R WCI  29
OWATONNA       CLOUDY    34  30  86 NE8       29.62R WCI  27
WASECA         CLOUDY    34  32  93 NE10      29.61F WCI  26
ALBERT LEA     CLOUDY    34  34 100 N5        29.58S WCI  30
$$
MNZ078>079-086>088-094>096-250700-
   Southeast Minnesota

CITY           SKY/WX    TMP DP  RH WIND       PRES   REMARKS
ROCHESTER      CLOUDY    33  30  88 NE9       29.61R WCI  25
6HR MIN TEMP:  33; 6HR MAX TEMP:  34;

RED WING       CLOUDY    36  30  80 E8        29.65R
STANTON        CLOUDY    35  32  88 NE7       29.64R WCI  29
DODGE CENTER   CLOUDY    34  34 100 NE7       29.60R WCI  28
WINONA         CLOUDY    34  32  93 CALM      29.65R
AUSTIN         CLOUDY    34  32  93 NE5       29.58S WCI  30
PRESTON        CLOUDY    33  31  92 NE7       29.60R WCI  27
$$
ABBREVIATIONS USED IN REMARKS
   TC - TEMPERATURES IN CELSIUS
  WCI - WIND CHILL INDEX
   HX - HEAT INDEX
  VSB - VISIBILITY
$$



USA.gov is the U.S. government's official web portal to all federal, state and local government web resources and services.